TimeEDT,TemperatureF,Dew PointF,Humidity,Sea Level PressureIn,VisibilityMPH,Wind Direction,Wind SpeedMPH,Gust SpeedMPH,PrecipitationIn,Events,Conditions,WindDirDegrees,DateUTC
12:43 AM,37.0,28.9,73,29.95,10.0,North,25.3,36.8,0.00,,Overcast,10,2014-04-01 04:43:00
12:53 AM,37.0,28.9,73,29.95,10.0,North,19.6,33.4,0.00,,Overcast,10,2014-04-01 04:53:00
1:18 AM,37.0,30.0,76,29.95,6.0,NNE,25.3,35.7,0.00,Snow,Light Snow,20,2014-04-01 05:18:00
1:53 AM,37.0,32.0,82,29.96,10.0,North,15.0,26.5,0.01,,Overcast,360,2014-04-01 05:53:00
2:53 AM,37.0,30.0,76,29.96,10.0,North,15.0,25.3,0.00,,Overcast,360,2014-04-01 06:53:00
3:09 AM,37.0,30.0,76,29.96,10.0,North,15.0,25.3,0.00,,Overcast,350,2014-04-01 07:09:00
3:53 AM,37.9,27.0,65,29.96,10.0,North,18.4,29.9,0.00,,Overcast,10,2014-04-01 07:53:00
4:01 AM,37.9,27.0,65,29.96,10.0,North,19.6,27.6,N/A,,Overcast,10,2014-04-01 08:01:00
4:53 AM,37.9,27.0,65,29.97,10.0,North,16.1,27.6,N/A,,Overcast,10,2014-04-01 08:53:00
5:09 AM,37.9,27.0,65,29.97,10.0,North,16.1,26.5,N/A,,Overcast,10,2014-04-01 09:09:00
5:53 AM,37.9,27.0,65,29.98,10.0,North,10.4,23.0,N/A,,Overcast,360,2014-04-01 09:53:00
6:53 AM,37.9,27.0,65,29.99,10.0,North,18.4,24.2,N/A,,Overcast,360,2014-04-01 10:53:00
7:53 AM,37.9,27.0,65,30.01,10.0,North,13.8,20.7,N/A,,Overcast,10,2014-04-01 11:53:00
8:53 AM,39.0,28.0,65,30.03,10.0,North,11.5,24.2,N/A,,Overcast,360,2014-04-01 12:53:00
9:53 AM,39.0,28.0,65,30.03,10.0,North,12.7,25.3,N/A,,Overcast,10,2014-04-01 13:53:00
10:53 AM,39.9,28.0,63,30.03,10.0,North,11.5,20.7,N/A,,Overcast,10,2014-04-01 14:53:00
11:53 AM,41.0,28.0,60,30.04,10.0,North,13.8,23.0,N/A,,Overcast,360,2014-04-01 15:53:00
12:53 PM,42.1,28.0,58,30.04,10.0,NNE,17.3,24.2,N/A,,Overcast,30,2014-04-01 16:53:00
1:53 PM,45.0,28.0,52,30.04,10.0,North,18.4,25.3,N/A,,Overcast,350,2014-04-01 17:53:00
2:53 PM,46.0,26.1,46,30.03,10.0,NNE,23.0,29.9,N/A,,Clear,20,2014-04-01 18:53:00
3:53 PM,46.0,25.0,44,30.04,10.0,NNE,19.6,25.3,N/A,,Clear,30,2014-04-01 19:53:00
4:53 PM,46.0,25.0,44,30.04,10.0,North,16.1,-,N/A,,Clear,10,2014-04-01 20:53:00
5:53 PM,46.0,25.0,44,30.06,10.0,NNE,12.7,-,N/A,,Clear,20,2014-04-01 21:53:00
6:53 PM,42.1,25.0,51,30.05,10.0,NNE,6.9,-,N/A,,Clear,30,2014-04-01 22:53:00
7:53 PM,39.9,26.1,58,30.04,10.0,NE,6.9,-,N/A,,Clear,40,2014-04-01 23:53:00
8:53 PM,39.0,26.1,60,30.06,10.0,NNE,3.5,-,N/A,,Clear,20,2014-04-02 00:53:00
9:53 PM,37.0,25.0,62,30.09,10.0,NNW,5.8,-,N/A,,Clear,340,2014-04-02 01:53:00
10:53 PM,37.0,25.0,62,30.09,10.0,NW,4.6,-,N/A,,Clear,310,2014-04-02 02:53:00
11:53 PM,39.0,28.9,67,30.11,10.0,WNW,8.1,-,N/A,,Clear,300,2014-04-02 03:53:00